Location: Fort Wayne
(41.1310°N, 85.1290°W)
Time: 15:57:43
(UTC-04:00)

BREEZE-M DEB (TANK) - Visible Passes

Search period start: 25 July 2014 00:00
Search period end: 04 August 2014 00:00
Orbit: 269 x 13685 km, 49.6° (Epoch: 24 July)

Date Brightness Start Highest point End Pass type
(mag) Time Alt. Az. Time Alt. Az. Time Alt. Az.
25 Jul 8.4 00:00:00 81° SW 23:59:45 81° SW 01:18:35 31° SSE visible
25 Jul 8.8 03:39:55 10° NW 04:30:48 20° WNW 05:26:16 10° WSW visible
25 Jul 8.8 19:49:15 10° W 20:26:40 76° N 22:35:38 10° ESE visible
26 Jul 8.4 00:28:58 10° NW 01:49:58 56° WSW 02:53:11 31° SSW visible
26 Jul 8.5 21:32:50 10° WNW 22:37:35 88° NE 00:12:09 26° SE visible
27 Jul 8.7 02:20:35 10° NW 03:27:05 31° W 04:27:57 16° SW visible
27 Jul 8.4 23:18:07 10° WNW 00:37:20 69° WSW 01:47:03 34° S visible
28 Jul 9.1 04:48:09 10° WNW 04:55:43 10° WNW 05:03:29 10° WNW visible
28 Jul 8.6 20:24:07 10° WNW 21:12:43 80° NNE 23:06:14 18° SE visible
29 Jul 8.6 01:06:15 10° NW 02:20:44 44° W 03:22:06 25° SW visible
29 Jul 8.4 22:08:11 10° WNW 23:20:08 82° SW 00:41:24 32° SSE visible
30 Jul 8.9 03:03:25 10° NW 03:53:39 21° WNW 04:51:06 10° WSW visible
30 Jul 8.7 19:15:54 10° W 19:50:09 76° N 21:59:32 10° ESE visible
30 Jul 8.5 23:54:13 10° NW 01:11:13 57° WSW 02:16:41 31° SSW visible
31 Jul 8.5 20:58:57 10° WNW 21:58:18 88° NE 23:36:11 26° SE visible
01 Aug 8.8 01:44:44 10° NW 02:49:14 32° W 03:52:06 17° SW visible
01 Aug 8.5 22:43:31 10° WNW 23:57:55 70° WSW 01:11:41 33° S visible
02 Aug 9.2 04:05:24 10° WNW 04:18:46 11° WNW 04:32:54 10° WNW visible
02 Aug 8.7 19:50:13 10° WNW 20:34:26 80° NNE 22:31:22 17° SE visible
03 Aug 8.7 00:30:45 10° NW 01:42:08 44° W 02:47:18 24° SW visible
03 Aug 8.6 21:33:41 10° WNW 22:40:16 82° SW 00:00:00 36° SSE visible
